User: anonymous   Login
Location: Unspecified
(0.0000°N, 0.0000°E)
Time: 01:51:26
(UTC+00:00)
Language:

Kosmos-1605 - Orbit

View from above orbital plane
View from above orbital plane
View from above satellite
View from above satellite

Ground track
Ground track

The orbit data is extracted from the following two-line orbital elements,

1 15359U 84109A   18114.74858786 +.00000015 +00000-0 +32676-6 0  9999
2 15359 082.9430 198.0336 0045897 347.4273 176.2716 13.75162815682852
Epoch (UTC): 24 April 2018 17:57:57
Eccentricity: 0.0045897
inclination: 82.9430°
perigee height: 947 km
apogee height: 1015 km
right ascension of ascending node: 198.0336°
argument of perigee: 347.4273°
revolutions per day: 13.75162815
mean anomaly at epoch: 176.2716°
orbit number at epoch: 68285

The dashed part of the orbit path shows where the satellite is in the earth's shadow,  

DLR